Rbgn^[z[y[W
メイン
   新天体発見情報
     Comet P/2024 T2 (Rankin)
投稿するにはまず登録を

フラット表示 前のトピック | 次のトピック
投稿者 スレッド
佐藤裕久
投稿日時: 2024-10-24 21:01
モデレータ
登録日: 2005-6-12
居住地: 日本
投稿: 2701
オンライン
Comet P/2024 T2 (Rankin)

David Rankin (アリゾナ大学月惑星研究所, LPL)の通報によると、10月4日、MtLemmon サーへイの1.5-m
反射望遠鏡で得たCCD画像から、5"の集光したコマとp.a. 270 °に7"の尾のある彗星を発見した。
小惑星センターのPCCP webpageに公表後、R. Weryk (西オンタリオ大学,物理および天文学科)によると、
10月13.6日UT、 J. Fairlamb がMaunakeaハワイ大学 2.2-m 望遠鏡で得た3枚の45-秒露出フォローアップ
画像は、Werykの測定では、1".6の最良シーイングで、1".9 半値全幅:FWHM)の集光した頭部が見え、p.a. 
280°に明瞭でまっすぐな12"の尾がある。佐藤英貴氏(東京都文京区)は、10月14.5日、60-秒CCD露出24枚
スタック, 0.43-m f/6.8 アストログラフ, Utah Desert Remote 天文台, Beryl Junction 近郊, ユタ州, 
米国, 遠隔操作:恒星状に見えるだけで、3".8の円形範囲で測定した光度は20.1等であった。
T. Prystavski (Lviv, ウクライナ, 10月15.5日現地薄明時. 15枚の60-秒露出, 0.51-m f/4.5 Corrected 
Dall-Kirkham 望遠鏡 , Utah Desert Remote 天文台, コマを伴わないやや細長い天体(おそらくp.a. 283°
に0'.1のごく短い尾)で、全光度は20.1等であった)らCCD観測者によって彗星状と観測された。

彗星機能の報告は次のとおり、

OC   Date        Reporter            Coma    Tail   PA   Comet     Date
                                                        (T/P)   Reported
G96  2024-10-04  D. Rankin           5"        7"  270    T   2024-10-04.48
I52  2024-10-04  R. A. Kowalski      5"        5"  280    T   2024-10-04.51
W62  2024-10-06  J. Maikner          3"        5"  280    T   2024-10-06.39
T12  2024-10-13  R. Weryk            0".3     12"  280    T   2024-10-13.67
U94  2024-10-15  T. Prystavski                            P   2024-10-15.80

発見位置は次のとおり、

     2024 UT             R.A. (2000) Decl.       Mag.   Observer
     Oct.  4.43483    6 31 32.46   +12 27 20.5   21.1   Rankin
           4.44028    6 31 32.99   +12 27 20.8   20.5     "
           4.44573    6 31 33.56   +12 27 20.6   20.4     "
           4.45119    6 31 34.14   +12 27 20.3   20.8     "
           4.45982    6 31 34.95   +12 27 20.4   20.1     "
           4.46312    6 31 35.33   +12 27 20.2   20.3     "
           4.46653    6 31 35.64   +12 27 20.3   20.6     "

MPCの楕円軌道要素、位置推算表は次のとおり、

Orbital elements:
    P/2024 T2 (Rankin)                                                          
Epoch 2024 Oct. 17.0 TT = JDT 2460600.5                                         
T 2024 Dec. 8.22917 TT                                  Rudenko                 
q   1.9734037            (2000.0)            P               Q                  
n   0.06346520     Peri.  343.76210     -0.12580974     -0.97047673             
a   6.2246116      Node   113.08909     +0.93326316     -0.18612695             
e   0.6829676      Incl.   12.92661     +0.33643988     +0.15340036             
P  15.5                                                                         
From 49 observations 2024 Oct. 4-17, mean residual 0".5.                        
                                                                                
Ephemeris:
Date    TT    R. A. (2000) Decl.     Delta      r    Elong.  Phase   m1
2024 09 19    06 03 46.9 +12 29 51   1.9624  2.1309    85.4    28.0  20.7
...
2024 10 04    06 30 47.0 +12 27 32   1.7679  2.0795    93.2    28.7  20.4
...
2024 10 12    06 44 18.0 +12 24 31   1.6689  2.0558    97.7    28.8  20.2
...
2024 10 18    06 53 55.1 +12 22 45   1.5972  2.0398   101.2    28.6  20.1
2024 10 19    06 55 28.4 +12 22 33   1.5854  2.0373   101.8    28.6  20.1
2024 10 20    06 57 00.8 +12 22 24   1.5738  2.0349   102.4    28.6  20.1
...
2024 10 26    07 05 55.1 +12 22 32   1.5053  2.0211   106.1    28.2  19.9
...
2024 11 03    07 16 47.0 +12 26 50   1.4181  2.0052   111.4    27.4  19.8
...
2024 11 18    07 33 24.8 +12 56 06   1.2706  1.9840   122.4    24.9  19.5

(MPEC 2024-U16、CBET 5460)

フラット表示 前のトピック | 次のトピック

題名 投稿者 日時
 » Comet P/2024 T2 (Rankin) 佐藤裕久 2024-10-24 21:01

投稿するにはまず登録を
 
© 1999 Tsutomu Seki.